Meath Environmental Platform

Observations for Trim Market St

Time AQI Temp °C Hum % Pres Pa CO μg/m³ H₂S μg/m³ NO μg/m³ NO₂ μg/m³ O₃ μg/m³ SO₂ μg/m³ PM1 μg/m³ PM2.5 μg/m³ PM10 μg/m³
Sunday 23 August 2026
08:19 2 15.5 66 57,231 0.41 0 2.55 11.97 31.67 0 1.43 2.74 4.93
08:18 2 15.5 66 57,205 0.4 0 2.23 15.68 29.35 0 0.71 2.73 4.29
08:13 2 15.4 67 57,122 0.41 0 2.05 8.04 41.28 0 0.71 2.22 3.65
08:12 2 15.4 67 57,102 0.42 0 2.05 8.58 38.43 0 0.71 3.2 5.6
08:08 2 15.3 67 57,034 0.41 0 2.1 8.56 43.23 0 0.71 2.69 4.96
08:04 2 15.2 67 57,026 0.39 0 2.13 10.54 44.8 0 0.71 2.2 3.68
07:58 2 15 68 56,900 0.41 0 1.92 8.29 43.15 0 0.71 2.18 3.69
07:57 2 15 68 56,876 0.39 0 1.92 8.03 41.9 0 1.43 3.15 4.97
07:56 2 14.9 68 56,849 0.38 0 1.87 7.9 44.68 0 0 2.17 4.34
07:55 2 14.9 68 56,829 0.39 0 2 8.18 43.99 0 1.43 2.66 4.34
07:54 2 14.9 68 56,812 0.38 0 2.17 9.87 36.46 0 1.43 2.65 4.34
07:53 2 14.9 68 56,806 0.39 0 2.43 10.83 40.1 0 0.71 3.14 4.98
07:52 2 14.8 68 56,799 0.4 0 2.59 12.03 42.7 0 0.71 2.65 4.34
07:51 2 14.8 68 56,802 0.4 0 2.69 8.33 45.28 0 1.43 2.65 4.34
07:50 2 14.8 68 56,813 0.39 0 2.53 9.61 45.62 0 0.71 3.14 6.25
07:49 2 14.8 68 56,832 0.38 0 2.28 7.87 48.71 0 0.71 3.14 4.98
07:48 2 14.7 68 56,843 0.39 0 2.08 8.17 48.61 0 0.71 3.14 4.98
07:47 2 14.7 68 56,852 0.39 0 2.07 8.25 46.58 0 0.71 2.16 3.7
07:46 2 14.7 68 56,856 0.4 0 2.43 8.24 43.29 0 0.71 2.16 3.71
07:45 2 14.7 68 56,859 0.41 0 2.11 9.39 49.04 0 0.71 2.16 3.7